EW6851 Weather Reports


Display with metric or nautical units.
time (UTC)temp
F
wind
direction
speed
MPH
gust
MPH
rain 1hr
in
rain 24hr
in
rain mn
in
humidity
%
barometer
mb
20260902164641 87 333 5.0 5.0 0.00 0.00 0.00 66 1016.6
20260902164141 87 298 3.0 6.0 0.00 0.00 0.00 66 1016.8
20260902163642 87 281 1.0 4.0 0.00 0.00 0.00 67 1016.7
20260902163141 87 267 2.0 6.0 0.00 0.00 0.00 66 1016.7
20260902162641 87 332 5.0 7.0 0.00 0.00 0.00 65 1016.8
20260902162141 88 305 6.0 6.0 0.00 0.00 0.00 65 1016.9
20260902161641 88 39 2.0 5.0 0.00 0.00 0.00 66 1016.9
20260902161141 88 300 2.0 6.0 0.00 0.00 0.00 65 1016.9
20260902160641 88 295 4.0 6.0 0.00 0.00 0.00 62 1016.9
20260902160141 88 313 2.0 7.0 0.00 0.00 0.00 62 1016.9
20260902155647 88 319 4.0 6.0 0.00 0.00 0.00 62 1016.9
20260902155141 88 302 2.0 5.0 0.00 0.00 0.00 62 1016.8
20260902154645 89 28 3.0 6.0 0.00 0.00 0.00 62 1016.9
20260902154141 89 304 3.0 7.0 0.00 0.00 0.00 60 1016.9
20260902153641 89 273 2.0 8.0 0.00 0.00 0.00 62 1016.9
20260902153144 89 295 3.0 8.0 0.00 0.00 0.00 60 1016.9
20260902152647 89 304 4.0 7.0 0.00 0.00 0.00 61 1016.9
20260902152144 89 284 6.0 7.0 0.00 0.00 0.00 61 1016.9
20260902151641 89 273 4.0 6.0 0.00 0.00 0.00 60 1016.9
20260902151150 89 29 2.0 8.0 0.00 0.00 0.00 61 1016.9
20260902150647 89 255 3.0 9.0 0.00 0.00 0.00 62 1016.9
20260902150141 89 169 0.0 8.0 0.00 0.00 0.00 61 1016.9
20260902145644 89 289 5.0 8.0 0.00 0.00 0.00 61 1017.0
20260902145144 89 257 1.0 7.0 0.00 0.00 0.00 62 1017.0
20260902144642 89 313 2.0 7.0 0.00 0.00 0.00 62 1017.1
20260902144147 89 344 4.0 8.0 0.00 0.00 0.00 61 1017.0
20260902143641 90 165 0.0 6.0 0.00 0.00 0.00 61 1017.0
20260902143141 90 268 4.0 7.0 0.00 0.00 0.00 61 1017.1
20260902142644 89 323 3.0 7.0 0.00 0.00 0.00 61 1017.1
20260902142144 89 321 2.0 9.0 0.00 0.00 0.00 61 1017.1
20260902141644 89 324 4.0 8.0 0.00 0.00 0.00 62 1017.1
20260902141144 89 283 3.0 8.0 0.00 0.00 0.00 60 1017.2
20260902140641 88 331 6.0 7.0 0.00 0.00 0.00 62 1017.2
20260902140147 89 319 4.0 9.0 0.00 0.00 0.00 61 1017.2
20260902135641 89 330 4.0 8.0 0.00 0.00 0.00 62 1017.2
20260902135144 89 332 2.0 11.0 0.00 0.00 0.00 61 1017.3
20260902134644 90 324 6.0 8.0 0.00 0.00 0.00 60 1017.3
20260902134144 89 308 4.0 7.0 0.00 0.00 0.00 61 1017.3
20260902133642 89 290 2.0 8.0 0.00 0.00 0.00 63 1017.3
20260902133141 89 297 4.0 9.0 0.00 0.00 0.00 63 1017.4
20260902132644 89 306 2.0 8.0 0.00 0.00 0.00 62 1017.5
20260902132147 89 289 4.0 10.0 0.00 0.00 0.00 62 1017.4
20260902131647 89 0 1.0 10.0 0.00 0.00 0.00 63 1017.5
20260902131144 89 293 4.0 8.0 0.00 0.00 0.00 63 1017.6
20260902130648 89 351 2.0 7.0 0.00 0.00 0.00 64 1017.6
20260902130144 89 285 2.0 9.0 0.00 0.00 0.00 64 1017.7
20260902125647 89 335 4.0 9.0 0.00 0.00 0.00 64 1017.7
20260902125142 89 17 3.0 10.0 0.00 0.00 0.00 63 1017.7
20260902124641 88 333 4.0 10.0 0.00 0.00 0.00 65 1017.7
20260902124144 89 311 8.0 11.0 0.00 0.00 0.00 64 1017.8
20260902123641 89 5 6.0 10.0 0.00 0.00 0.00 63 1017.8
20260902123144 89 311 9.0 11.0 0.00 0.00 0.00 63 1017.9
20260902122641 89 239 7.0 10.0 0.00 0.00 0.00 63 1017.9
20260902122144 89 287 5.0 9.0 0.00 0.00 0.00 62 1018.0
20260902121644 89 5 4.0 10.0 0.00 0.00 0.00 63 1018.0
20260902121141 89 272 5.0 8.0 0.00 0.00 0.00 61 1018.1
20260902120641 89 340 5.0 10.0 0.00 0.00 0.00 62 1018.1
20260902120141 89 259 7.0 9.0 0.00 0.00 0.00 63 1018.1
20260902115644 89 332 2.0 10.0 0.00 0.00 0.00 62 1018.1
20260902115141 89 313 7.0 9.0 0.00 0.00 0.00 60 1018.2
20260902114641 89 306 2.0 11.0 0.00 0.00 0.00 59 1018.1
20260902114150 89 292 6.0 9.0 0.00 0.00 0.00 60 1018.1
20260902113644 89 321 3.0 8.0 0.00 0.00 0.00 58 1018.2
20260902113144 89 343 6.0 10.0 0.00 0.00 0.00 56 1018.1
20260902112644 89 277 7.0 10.0 0.00 0.00 0.00 60 1018.1
20260902112144 89 269 3.0 10.0 0.00 0.00 0.00 59 1018.1
20260902111641 90 314 3.0 9.0 0.00 0.00 0.00 58 1018.1
20260902111144 89 342 2.0 10.0 0.00 0.00 0.00 60 1018.1
20260902110644 89 5 3.0 7.0 0.00 0.00 0.00 59 1018.1
20260902110144 89 286 0.0 6.0 0.00 0.00 0.00 60 1018.1
20260902105641 89 61 2.0 8.0 0.00 0.00 0.00 59 1018.2
20260902105141 89 326 7.0 8.0 0.00 0.00 0.00 59 1018.2
20260902104641 89 265 6.0 9.0 0.00 0.00 0.00 59 1018.2
20260902104141 89 336 2.0 8.0 0.00 0.00 0.00 61 1018.2
20260902103647 89 278 5.0 10.0 0.00 0.00 0.00 61 1018.3
20260902103144 89 313 8.0 8.0 0.00 0.00 0.00 60 1018.4
20260902102644 89 286 4.0 6.0 0.00 0.00 0.00 62 1018.4
20260902102147 89 342 2.0 6.0 0.00 0.00 0.00 62 1018.4
20260902101641 88 278 1.0 7.0 0.00 0.00 0.00 63 1018.5
20260902101142 89 252 3.0 8.0 0.00 0.00 0.00 62 1018.6
20260902100642 88 289 4.0 11.0 0.00 0.00 0.00 63 1018.5
20260902100141 88 275 1.0 9.0 0.00 0.00 0.00 64 1018.5
20260902095647 88 313 7.0 10.0 0.00 0.00 0.00 64 1018.5
20260902095141 88 266 3.0 12.0 0.00 0.00 0.00 62 1018.5
20260902094641 88 289 6.0 9.0 0.00 0.00 0.00 62 1018.5
20260902094141 88 305 7.0 9.0 0.00 0.00 0.00 63 1018.6
20260902093644 87 290 4.0 11.0 0.00 0.00 0.00 63 1018.5
20260902093141 88 307 6.0 10.0 0.00 0.00 0.00 61 1018.5
20260902092644 88 278 3.0 7.0 0.00 0.00 0.00 60 1018.5
20260902092150 88 263 3.0 8.0 0.00 0.00 0.00 63 1018.5
20260902091644 88 284 4.0 6.0 0.00 0.00 0.00 64 1018.4
20260902091142 87 301 2.0 8.0 0.00 0.00 0.00 62 1018.4
20260902090645 87 309 7.0 10.0 0.00 0.00 0.00 62 1018.4
20260902090151 88 234 4.0 9.0 0.00 0.00 0.00 62 1018.4
20260902085642 87 346 3.0 7.0 0.00 0.00 0.00 63 1018.3
20260902085144 87 309 3.0 9.0 0.00 0.00 0.00 64 1018.2
20260902084641 87 230 3.0 8.0 0.00 0.00 0.00 63 1018.2
20260902084141 87 306 5.0 7.0 0.00 0.00 0.00 65 1018.1
20260902083641 87 316 4.0 8.0 0.00 0.00 0.00 64 1018.1
20260902083145 87 342 7.0 8.0 0.00 0.00 0.00 64 1018.0
20260902082641 87 317 3.0 8.0 0.00 0.00 0.00 64 1018.0
20260902082142 87 265 3.0 9.0 0.00 0.00 0.00 63 1018.1
20260902081641 87 313 4.0 7.0 0.00 0.00 0.00 63 1018.0
20260902081142 87 319 3.0 7.0 0.00 0.00 0.00 63 1018.0
20260902080644 87 298 4.0 7.0 0.00 0.00 0.00 64 1018.0
20260902080141 87 287 3.0 8.0 0.00 0.00 0.00 62 1018.0
20260902075642 86 307 3.0 6.0 0.00 0.00 0.00 63 1017.9
20260902075151 86 338 5.0 6.0 0.00 0.00 0.00 64 1017.8
20260902074641 86 300 3.0 6.0 0.00 0.00 0.00 64 1017.8
20260902074144 86 201 3.0 7.0 0.00 0.00 0.00 63 1017.7
20260902073645 86 303 4.0 4.0 0.00 0.00 0.00 64 1017.7
20260902073141 86 318 1.0 6.0 0.00 0.00 0.00 63 1017.7
20260902072641 86 303 2.0 5.0 0.00 0.00 0.00 62 1017.8
20260902072144 86 39 0.0 8.0 0.00 0.00 0.00 62 1017.8
20260902071647 86 292 4.0 6.0 0.00 0.00 0.00 63 1017.6
20260902071145 86 261 2.0 5.0 0.00 0.00 0.00 63 1017.6
20260902070648 85 284 2.0 5.0 0.00 0.00 0.00 63 1017.7
20260902070145 85 221 2.0 6.0 0.00 0.00 0.00 63 1017.6
20260902065645 85 240 0.0 2.0 0.00 0.00 0.00 64 1017.5
20260902065142 85 178 1.0 4.0 0.00 0.00 0.00 64 1017.5
20260902064645 85 245 2.0 4.0 0.00 0.00 0.00 65 1017.5
20260902064148 85 119 0.0 0.0 0.00 0.00 0.00 66 1017.5
20260902063645 84 187 0.0 1.0 0.00 0.00 0.00 68 1017.4
20260902063148 83 139 0.0 3.0 0.00 0.00 0.00 68 1017.4
20260902062642 83 191 2.0 3.0 0.00 0.00 0.00 69 1017.3
20260902062145 83 144 3.0 5.0 0.00 0.00 0.00 71 1017.3
20260902061142 82 202 2.0 6.0 0.00 0.00 0.00 72 1017.3
20260902060648 82 149 3.0 5.0 0.00 0.00 0.00 72 1017.2
20260902060145 82 173 2.0 4.0 0.00 0.00 0.00 73 1017.3
20260902055642 81 173 0.0 2.0 0.00 0.00 0.00 74 1017.3
20260902055145 81 173 0.0 0.0 0.00 0.00 0.00 75 1017.3
20260902054648 80 173 0.0 3.0 0.00 0.00 0.00 76 1017.3
20260902054142 80 167 2.0 4.0 0.00 0.00 0.00 76 1017.3
20260902053642 80 216 0.0 6.0 0.00 0.00 0.00 77 1017.3
20260902053148 79 153 2.0 5.0 0.00 0.00 0.00 78 1017.3
20260902052648 79 141 2.0 6.0 0.00 0.00 0.00 78 1017.3
20260902052142 79 164 4.0 6.0 0.00 0.00 0.00 78 1017.2
20260902051645 79 171 1.0 5.0 0.00 0.00 0.00 78 1017.2
20260902051145 78 173 1.0 4.0 0.00 0.00 0.00 79 1017.3
20260902050645 78 154 3.0 7.0 0.00 0.00 0.00 78 1017.3
20260902050142 78 135 1.0 6.0 0.00 0.00 0.00 78 1017.2
20260902045645 78 151 4.0 6.0 0.00 0.00 0.00 79 1017.3
20260902045142 78 134 3.0 6.0 0.00 0.00 0.00 79 1017.3
20260902044642 78 167 3.0 5.0 0.00 0.00 0.00 79 1017.3
20260902044148 78 148 5.0 7.0 0.00 0.00 0.00 79 1017.3
20260902043651 78 123 3.0 7.0 0.00 0.00 0.00 79 1017.3
20260902043145 78 139 5.0 6.0 0.00 0.00 0.00 79 1017.3
20260902042642 78 127 1.0 6.0 0.00 0.00 0.00 79 1017.3
20260902042145 78 128 4.0 6.0 0.00 0.00 0.00 79 1017.4
20260902041642 78 120 3.0 7.0 0.00 0.00 0.00 79 1017.4
20260902041142 78 145 2.0 7.0 0.00 0.00 0.00 79 1017.4
20260902040642 78 178 3.0 5.0 0.00 0.00 0.00 79 1017.4
20260902040145 78 180 4.0 6.0 0.00 0.00 0.00 79 1017.4
20260902035651 78 137 1.0 4.0 0.00 0.00 0.00 79 1017.4
20260902035142 78 136 3.0 6.0 0.00 0.00 0.00 79 1017.4
20260902034642 78 134 4.0 5.0 0.00 0.00 0.00 79 1017.4
20260902034145 78 138 3.0 6.0 0.00 0.00 0.00 79 1017.4
20260902033642 78 143 5.0 6.0 0.00 0.00 0.00 80 1017.4
20260902033148 78 158 3.0 6.0 0.00 0.00 0.00 80 1017.4
20260902032642 78 162 2.0 6.0 0.00 0.00 0.00 80 1017.4
20260902032145 78 173 5.0 7.0 0.00 0.00 0.00 80 1017.4
20260902031648 78 165 3.0 6.0 0.00 0.00 0.00 80 1017.4
20260902031143 78 240 1.0 7.0 0.00 0.00 0.00 80 1017.4
20260902030643 78 148 2.0 6.0 0.00 0.00 0.00 80 1017.5
20260902030142 78 142 0.0 5.0 0.00 0.00 0.00 80 1017.5
20260902025645 78 192 1.0 5.0 0.00 0.00 0.00 80 1017.5
20260902025146 78 165 3.0 4.0 0.00 0.00 0.00 80 1017.5
20260902024645 78 142 2.0 4.0 0.00 0.00 0.00 80 1017.5
20260902024142 78 145 4.0 5.0 0.00 0.00 0.00 80 1017.5
20260902023645 78 200 1.0 4.0 0.00 0.00 0.00 80 1017.5
20260902023145 78 143 3.0 5.0 0.00 0.00 0.00 80 1017.5
20260902022642 78 171 3.0 4.0 0.00 0.00 0.00 80 1017.5
20260902022145 78 159 3.0 7.0 0.00 0.00 0.00 80 1017.6
20260902021642 78 145 3.0 6.0 0.00 0.00 0.00 80 1017.6
20260902021142 79 109 4.0 6.0 0.00 0.00 0.00 80 1017.6
20260902020642 79 153 1.0 5.0 0.00 0.00 0.00 80 1017.6
20260902020143 79 123 4.0 5.0 0.00 0.00 0.00 80 1017.6
20260902015643 79 77 0.0 5.0 0.00 0.00 0.00 80 1017.6
20260902015140 79 178 1.0 6.0 0.00 0.00 0.00 79 1017.6
20260902014641 79 133 3.0 5.0 0.00 0.00 0.00 79 1017.5
20260902014140 79 174 3.0 4.0 0.00 0.00 0.00 79 1017.5
20260902013650 79 158 1.0 4.0 0.00 0.00 0.00 79 1017.5
20260902013146 79 167 0.0 4.0 0.00 0.00 0.00 79 1017.6
20260902012640 79 140 4.0 6.0 0.00 0.00 0.00 79 1017.6
20260902012140 79 117 3.0 5.0 0.00 0.00 0.00 79 1017.5
20260902011647 79 164 3.0 7.0 0.00 0.00 0.00 79 1017.5
20260902011144 79 132 2.0 5.0 0.00 0.00 0.00 79 1017.6
20260902010644 79 144 4.0 5.0 0.00 0.00 0.00 79 1017.6
20260902010140 79 139 0.0 3.0 0.00 0.00 0.00 79 1017.6
20260902005640 79 143 0.0 3.0 0.00 0.00 0.00 79 1017.6
20260902005147 79 114 2.0 4.0 0.00 0.00 0.00 79 1017.6
20260902004640 79 184 0.0 7.0 0.00 0.00 0.00 79 1017.6
20260902004141 79 153 1.0 7.0 0.00 0.00 0.00 79 1017.6
20260902003643 79 119 3.0 6.0 0.00 0.00 0.00 79 1017.7
20260902003142 79 163 1.0 7.0 0.00 0.00 0.00 79 1017.6
20260902002643 79 150 1.0 6.0 0.00 0.00 0.00 79 1017.6
20260902002150 79 148 3.0 4.0 0.00 0.00 0.00 79 1017.6
20260902001647 79 146 4.0 6.0 0.00 0.00 0.00 79 1017.6
20260902001141 79 153 2.0 5.0 0.00 0.00 0.00 79 1017.6
20260902000644 79 175 1.0 3.0 0.00 0.00 0.00 79 1017.6
20260902000141 79 171 0.0 5.0 0.00 0.00 0.00 78 1017.6
20260901235641 79 159 1.0 4.0 0.00 0.00 0.00 78 1017.6
20260901235144 79 155 4.0 5.0 0.00 0.00 0.00 78 1017.6
20260901234644 79 172 0.0 6.0 0.00 0.00 0.00 78 1017.7
20260901234141 79 163 0.0 4.0 0.00 0.00 0.00 78 1017.7
20260901233644 80 161 0.0 4.0 0.00 0.00 0.00 78 1017.7
20260901233144 80 106 2.0 5.0 0.00 0.00 0.00 78 1017.7
20260901232644 80 141 2.0 5.0 0.00 0.00 0.00 77 1017.8
20260901232141 80 182 0.0 5.0 0.00 0.00 0.00 77 1017.8
20260901231641 80 159 2.0 5.0 0.00 0.00 0.00 77 1017.7
20260901231144 80 137 0.0 4.0 0.00 0.00 0.00 77 1017.7
20260901230644 80 160 1.0 5.0 0.00 0.00 0.00 76 1017.7
20260901230147 80 53 0.0 6.0 0.00 0.00 0.00 76 1017.6
20260901225644 81 118 4.0 6.0 0.00 0.00 0.00 75 1017.6
20260901225141 81 138 0.0 4.0 0.00 0.00 0.00 75 1017.6
20260901224641 81 161 1.0 5.0 0.00 0.00 0.00 75 1017.6
20260901224141 81 173 0.0 3.0 0.00 0.00 0.00 74 1017.5
20260901223641 81 157 2.0 3.0 0.00 0.00 0.00 74 1017.5
20260901223144 81 170 2.0 4.0 0.00 0.00 0.00 74 1017.5
20260901222644 82 148 0.0 5.0 0.00 0.00 0.00 74 1017.5
20260901222144 82 152 0.0 3.0 0.00 0.00 0.00 74 1017.5
20260901221641 82 152 0.0 3.0 0.00 0.00 0.00 74 1017.5
20260901221141 82 152 1.0 3.0 0.00 0.00 0.00 73 1017.4
20260901220647 82 152 3.0 3.0 0.00 0.00 0.00 73 1017.5
20260901220144 82 126 0.0 4.0 0.00 0.00 0.00 73 1017.4
20260901215644 82 172 2.0 4.0 0.00 0.00 0.00 73 1017.4
20260901215144 82 193 1.0 4.0 0.00 0.00 0.00 73 1017.5
20260901214641 82 174 1.0 4.0 0.00 0.00 0.00 73 1017.5
20260901214141 82 159 3.0 4.0 0.00 0.00 0.00 72 1017.4
20260901213650 82 162 3.0 5.0 0.00 0.00 0.00 72 1017.4
20260901213144 82 182 4.0 5.0 0.00 0.00 0.00 72 1017.5
20260901212644 82 185 0.0 1.0 0.00 0.00 0.00 72 1017.4
20260901212141 82 185 1.0 3.0 0.00 0.00 0.00 72 1017.5
20260901211644 82 173 3.0 4.0 0.00 0.00 0.00 72 1017.5
20260901211144 83 234 2.0 6.0 0.00 0.00 0.00 72 1017.5
20260901210641 83 168 3.0 6.0 0.00 0.00 0.00 73 1017.4
20260901210150 83 207 5.0 6.0 0.00 0.00 0.00 73 1017.4
20260901205651 83 222 3.0 4.0 0.00 0.00 0.00 72 1017.5
20260901205144 83 228 0.0 4.0 0.00 0.00 0.00 72 1017.4
20260901204641 83 198 3.0 4.0 0.00 0.00 0.00 72 1017.4
20260901204150 83 298 2.0 5.0 0.00 0.00 0.00 73 1017.5
20260901203647 83 193 2.0 3.0 0.00 0.00 0.00 72 1017.5
20260901203144 83 171 1.0 4.0 0.00 0.00 0.00 71 1017.5
20260901202647 83 162 0.0 1.0 0.00 0.00 0.00 71 1017.5
20260901202141 83 205 0.0 4.0 0.00 0.00 0.00 71 1017.5
20260901201641 83 203 1.0 3.0 0.00 0.00 0.00 71 1017.5
20260901201144 83 182 3.0 4.0 0.00 0.00 0.00 72 1017.5
20260901200647 83 229 2.0 3.0 0.00 0.00 0.00 71 1017.5
20260901200141 83 229 2.0 3.0 0.00 0.00 0.00 70 1017.6
20260901195644 83 151 2.0 4.0 0.00 0.00 0.00 70 1017.6
20260901195141 83 145 0.0 4.0 0.00 0.00 0.00 70 1017.6
20260901194647 83 174 2.0 5.0 0.00 0.00 0.00 70 1017.6
20260901194145 83 156 4.0 5.0 0.00 0.00 0.00 69 1017.6
20260901193644 83 165 0.0 4.0 0.00 0.00 0.00 69 1017.6
20260901193141 83 141 1.0 4.0 0.00 0.00 0.00 69 1017.6
20260901192641 83 189 0.0 2.0 0.00 0.00 0.00 69 1017.5
20260901192144 83 128 2.0 3.0 0.00 0.00 0.00 69 1017.5
20260901191644 83 90 2.0 4.0 0.00 0.00 0.00 69 1017.4
20260901191150 83 159 1.0 3.0 0.00 0.00 0.00 69 1017.3
20260901190641 83 155 0.0 2.0 0.00 0.00 0.00 69 1017.3
20260901190141 83 121 1.0 3.0 0.00 0.00 0.00 69 1017.2
20260901185644 83 113 0.0 0.0 0.00 0.00 0.00 69 1017.2
20260901185147 83 191 0.0 3.0 0.00 0.00 0.00 69 1017.2
20260901184647 83 181 0.0 3.0 0.00 0.00 0.00 69 1017.1
20260901184141 83 119 2.0 3.0 0.00 0.00 0.00 69 1017.1
20260901183641 83 114 0.0 3.0 0.00 0.00 0.00 68 1017.1
20260901183141 84 148 0.0 0.0 0.00 0.00 0.00 68 1017.0
20260901182641 84 133 0.0 2.0 0.00 0.00 0.00 69 1017.0
20260901182141 84 278 0.0 3.0 0.00 0.00 0.00 69 1016.9
20260901181647 84 288 0.0 0.0 0.00 0.00 0.00 69 1016.8
20260901181144 84 288 0.0 2.0 0.00 0.00 0.00 69 1016.9
20260901180641 84 288 2.0 4.0 0.00 0.00 0.00 68 1016.8
20260901180144 84 291 4.0 4.0 0.00 0.00 0.00 68 1016.7
20260901175647 84 291 0.0 3.0 0.00 0.00 0.00 68 1016.6
20260901175144 84 336 0.0 4.0 0.00 0.00 0.00 68 1016.6
20260901174644 85 333 3.0 5.0 0.00 0.00 0.00 67 1016.6
20260901174141 85 321 2.0 5.0 0.00 0.00 0.00 67 1016.5
20260901173644 85 257 5.0 4.0 0.00 0.00 0.00 67 1016.5
20260901173141 85 288 2.0 4.0 0.00 0.00 0.00 67 1016.5
20260901172647 85 232 1.0 3.0 0.00 0.00 0.00 66 1016.5
20260901172144 85 316 3.0 5.0 0.00 0.00 0.00 65 1016.5
20260901171644 86 268 5.0 6.0 0.00 0.00 0.00 64 1016.5
20260901171144 86 309 1.0 5.0 0.00 0.00 0.00 64 1016.5
20260901170647 86 340 4.0 6.0 0.00 0.00 0.00 63 1016.5
20260901170144 86 230 0.0 4.0 0.00 0.00 0.00 63 1016.4
20260901165641 87 287 1.0 5.0 0.00 0.00 0.00 63 1016.5
20260901165141 86 273 4.0 4.0 0.00 0.00 0.00 63 1016.5